Hartford, CT

2:51 PM EST on December 05, 2019 (GMT -0500)
Hartford-brainard

Weather History for KHFD - October, 2019

Change the Weather History Date:

Saturday, October 19, 2019

  Actual Average Record
Temperature  
Mean Temperature 50 °F -  
Max Temperature 63 °F 60 °F 82 °F (2016)
Min Temperature 37 °F 38 °F 21 °F (1974)
Degree Days  
Heating Degree Days 16    
Moisture  
Dew Point 36 °F    
Average Humidity 66    
Maximum Humidity 93    
Minimum Humidity 34    
Precipitation  
Precipitation 0.00 in - - ()
Sea Level Pressure  
Sea Level Pressure 30.02 in    
Wind  
Wind Speed 2 mph ()    
Max Wind Speed 8 mph    
Max Gust Speed -    
Visibility 10.0 miles    
Events      
Averages and records for this station are not official NWS values.
T = Trace of Precipitation, MM = Missing Value Source: Averaged Metar Reports

Daily Weather History Graph

Daily Weather History Graph

Search for Another Location

Airport or City:

Astronomy

Oct. 19, 2019 Rise Set
Actual Time 7:07 AM EDT 6:03 PM EDT
Civil Twilight 6:38 AM EDT 6:31 PM EDT
Nautical Twilight 6:06 AM EDT 7:03 PM EDT
Astronomical Twilight 5:34 AM EDT 7:36 PM EDT
Moon 10:06 PM EDT (10/19) 12:40 PM EDT (10/19)
Length of Visible Light 11h 52m
Length of Day
10h 56m
Waning Gibbous, 70% of the Moon is Illuminated
Oct 19
Waning Gibbous
Oct 21
Last Quarter
Oct 27
New
Nov 4
First Quarter
Nov 12
Full

Hourly Weather History & Observations

Time (EDT) Temp. Windchill Dew Point Humidity Pressure Visibility Wind Dir Wind Speed Gust Speed Precip Events Conditions
12:53 AM 46.9 °F - 34.0 °F 61% 29.99 in 10.0 mi NW 6.9 mph - N/A   Overcast
1:53 AM 45.0 °F 42.6 °F 33.1 °F 63% 30.00 in 10.0 mi NW 4.6 mph - N/A   Clear
2:53 AM 44.1 °F - 34.0 °F 68% 30.01 in 10.0 mi Calm Calm - N/A   Clear
3:53 AM 42.1 °F - 34.0 °F 73% 30.01 in 10.0 mi Calm Calm - N/A   Clear
4:53 AM 41.0 °F - 34.0 °F 76% 30.01 in 10.0 mi Calm Calm - N/A   Clear
5:53 AM 37.9 °F - 35.1 °F 89% 30.02 in 10.0 mi Calm Calm - N/A   Clear
6:53 AM 37.0 °F - 34.0 °F 89% 30.03 in 10.0 mi Calm Calm - N/A   Clear
7:53 AM 39.0 °F - 37.0 °F 93% 30.04 in 10.0 mi Calm Calm - N/A   Clear
8:53 AM 43.0 °F - 37.0 °F 80% 30.06 in 10.0 mi Calm Calm - N/A   Clear
9:53 AM 48.9 °F - 37.0 °F 64% 30.06 in 10.0 mi Calm Calm - N/A   Clear
10:53 AM 52.0 °F - 36.0 °F 54% 30.06 in 10.0 mi Variable 3.5 mph - N/A   Clear
11:53 AM 54.0 °F - 37.0 °F 53% 30.05 in 10.0 mi Variable 4.6 mph - N/A   Clear
12:53 PM 57.0 °F - 37.0 °F 47% 30.03 in 10.0 mi WSW 5.8 mph - N/A   Clear
1:53 PM 59.0 °F - 37.0 °F 44% 30.00 in 10.0 mi SSW 8.1 mph - N/A   Clear
2:53 PM 61.0 °F - 34.0 °F 36% 29.99 in 10.0 mi Variable 3.5 mph - N/A   Clear
3:53 PM 62.1 °F - 33.1 °F 34% 29.99 in 10.0 mi West 5.8 mph - N/A   Clear
4:53 PM 62.1 °F - 33.1 °F 34% 29.99 in 10.0 mi WNW 5.8 mph - N/A   Clear
5:53 PM 59.0 °F - 34.0 °F 39% 30.00 in 10.0 mi WNW 3.5 mph - N/A   Clear
6:53 PM 50.0 °F - 39.0 °F 66% 30.01 in 10.0 mi Calm Calm - N/A   Clear
7:53 PM 48.0 °F - 39.9 °F 74% 30.02 in 10.0 mi Calm Calm - N/A   Clear
8:53 PM 46.0 °F - 41.0 °F 83% 30.03 in 10.0 mi Calm Calm - N/A   Clear
9:53 PM 43.0 °F - 39.9 °F 89% 30.05 in 10.0 mi Calm Calm - N/A   Clear
10:53 PM 43.0 °F - 41.0 °F 93% 30.05 in 10.0 mi Calm Calm - N/A   Clear
11:53 PM 43.0 °F - 41.0 °F 93% 30.06 in 10.0 mi Calm Calm - N/A   Clear